Location: Kalberh�ni
(46.4610°N, 7.2453°E)
Time: 22:51:52
(UTC+00:00)

Cosmos 1447 Rocket - Visible Passes

Search period start: 23 October 2021 00:00
Search period end: 02 November 2021 00:00
Orbit: 953 x 996 km, 82.9° (Epoch: 23 October)

Date Brightness Start Highest point End Pass type
(mag) Time Alt. Az. Time Alt. Az. Time Alt. Az.
23 Oct 4.4 18:26:46 10° N 18:32:56 88° E 18:39:06 10° S visible
23 Oct 7.0 20:14:03 10° NW 20:17:24 15° WNW 20:20:45 10° WSW visible
24 Oct 5.3 17:07:15 10° NNE 17:12:21 27° ENE 17:17:26 10° SE visible
24 Oct 5.1 18:52:07 10° NNW 18:58:05 54° W 19:04:02 10° SSW visible
25 Oct 4.7 17:32:02 10° N 17:37:54 44° ENE 17:43:44 10° SSE visible
25 Oct 6.1 19:17:46 10° NNW 19:23:03 31° W 19:28:20 10° SW visible
26 Oct 7.4 05:23:20 10° ESE 05:26:07 13° ENE 05:28:54 10° NE visible
26 Oct 4.3 17:57:05 10° N 18:03:16 76° E 18:09:24 10° SSE visible
26 Oct 6.9 19:43:55 10° NW 19:47:52 18° W 19:51:50 10° WSW visible
27 Oct 4.9 18:22:23 10° NNW 18:28:26 64° W 18:34:30 10° S visible
28 Oct 4.9 17:02:27 10° N 17:08:09 38° ENE 17:13:51 10° SE visible
28 Oct 5.9 18:47:56 10° NNW 18:53:28 37° W 18:59:01 10° SSW visible
29 Oct 7.7 04:55:03 10° E 04:56:37 11° ENE 04:58:12 10° ENE visible
29 Oct 4.4 17:27:26 10° N 17:33:34 66° E 17:39:41 10° SSE visible
29 Oct 6.8 19:13:54 10° NW 19:18:20 21° W 19:22:46 10° SW visible
30 Oct 7.2 05:16:57 10° SE 05:21:18 20° E 05:25:38 10° NE visible
30 Oct 4.7 17:52:39 10° NNW 17:58:48 74° W 18:04:56 10° S visible
30 Oct 7.5 19:41:05 10° WNW 19:43:01 12° WNW 19:44:59 10° W visible
31 Oct 5.7 18:18:08 10° NNW 18:23:52 43° W 18:29:36 10° SSW visible
01 Nov 4.5 16:57:47 10° N 17:03:51 56° ENE 17:09:55 10° SSE visible
01 Nov 6.6 18:43:57 10° NNW 18:48:47 25° W 18:53:37 10° SW visible
